Preview of NWS' New Version of Forecast
This preview is not operational and should not be used for support decisions.

Regional Weather Roundup (RWR)

Issued by National Weather Service (NWS)

                            
000
ASUS45 KBOI 212210
RWRID 

IDAHO REGIONAL WEATHER ROUNDUP
NATIONAL WEATHER SERVICE BOISE ID
400 PM MDT SAT SEP 21 2019

NOTE: "FAIR" INDICATES FEW OR NO CLOUDS BELOW 12000 FEET
WITH NO SIGNIFICANT WEATHER AND/OR OBSTRUCTIONS TO VISIBILITY

IDZ012-014-212300-
SOUTHWEST IDAHO

  
CITY           SKY/WX    TMP DP  RH WIND       PRES   REMARKS
BOISE          SUNNY     69  42  37 NW12      30.09F                  
CALDWELL       SUNNY     70  43  37 W7        30.09F                  
MOUNTAIN HOME  SUNNY     71  36  28 W13       30.07F                  
$$

IDZ016-017-212300-
SOUTHCENTRAL IDAHO

  
CITY           SKY/WX    TMP DP  RH WIND       PRES   REMARKS
BURLEY         MOSUNNY   64  37  36 W8        30.10F                  
JEROME         SUNNY     66  40  38 W9        30.11F                  
TWIN FALLS     SUNNY     64  36  35 NW9       30.11F                  
$$

IDZ019>023-212300-
SOUTHEAST IDAHO

  
CITY           SKY/WX    TMP DP  RH WIND       PRES   REMARKS
IDAHO FALLS    PTSUNNY   58  39  49 S10       30.12F                  
POCATELLO      PTSUNNY   63  34  33 W14       30.12F                  
REXBURG        PTSUNNY   57  41  55 S7        30.12F                  
$$

IDZ006-010-011-018-031-032-212300-
CENTRAL IDAHO MOUNTAINS

  
CITY           SKY/WX    TMP DP  RH WIND       PRES   REMARKS
MCCALL         PTSUNNY   62  37  39 W10       30.11F                  
HAILEY         PTSUNNY   59  37  44 SE10      30.12F                  
STANLEY          N/A     58  30  34 NW5       30.14F                  
SALMON         PTSUNNY   61  42  49 S9        30.09F                  
CHALLIS        MOSUNNY   63  34  33 CALM      30.07F                  
$$

IDZ002-004-006-007-026-212300-
NORTHERN IDAHO

  
CITY           SKY/WX    TMP DP  RH WIND       PRES   REMARKS
LEWISTON       PTSUNNY   73  47  39 E5        30.04F                  
LOWELL           N/A     69  56  62 CALM      30.05F                  
COEUR D'ALENE  CLOUDY    65  47  52 S7        30.06F                  
MULLAN PASS    CLOUDY    46  40  79 VRB5      30.13F                  
$$